Погода в Белом Ануе

Россия / Республика Алтай     51°13′50″N   84°54′00″E
темп.,
°C
ветер,
м/с
пор.,
м/с
влажн.,
%
обл.,
%
осадки,
мм/ч
давл.,
гПа
погр.,
м
14 августа, вс
вс1401:00+9ю1197100 1.1 101316
04:00+8ю23984 0.0 101356
07:00+7ю249812 0.0 101483
10:00+14ююз23735 0.1 1013546
13:00+17з4645100 0.1 10112100
16:00+19з4641100 0.0 10112275
19:00+15з23608 0.0 1012175
22:00+12ю11705 0.0 101215
15 августа, пн
пн1501:00+10ю237542 0.0 101277
04:00+9ю0078100 0.0 101135
07:00+8с019548 0.3 101248
10:00+11ссз238699 0.3 1012498
13:00+13ссз346276 0.3 10121153
16:00+14ссз444490 0.0 10121338
19:00+13с354692 0.0 10121279
22:00+6в007160 0.0 101410
16 августа, вт
вт1601:00+4юз00785 0.0 101410
04:00+2ссв01915 0.0 101510
07:00+3ю00895 0.0 101611
10:00+10сз22555 0.0 10131041
13:00+13сз434210 0.0 10121779
16:00+13ссз444520 0.0 10121419
19:00+11ссз344811 0.0 10121373
22:00+3ссв117612 0.0 101613
17 августа, ср
ср1701:00+1юв118372 0.0 101610
04:00+1ю11835 0.0 101513
07:00+1ю22786 0.0 101531
10:00+10зсз124596 0.0 10111418
13:00+11сз2342100 0.0 10101871
16:00+10сз1255100 0.1 10101206
19:00+8в0188100 1.1 101091
22:00+3ююз229740 1.1 101528
18 августа, чт
чт1801:00+4юз1197100 1.3 101438
04:00+3юз1297100 1.2 1014202
07:00+3з009669 1.3 101542
10:00+4сз229492 0.7 1016414
13:00+8зсз235870 1.0 10151333
16:00+8с3352100 0.4 10151657
19:00+7с335386 0.4 10151199
22:00+3с117583 0.0 101711